Location: ?ern� Novina
(50.6762°N, 14.8696°E)
Time: 12:53:46
(UTC+00:00)

CZ-2C R/B - Pass Details

Date: 03 March 2021
Orbit: 703 x 908 km, 98.1° (Epoch: 16 April)

Event Time Altitude Azimuth Distance (km) Brightness Sun altitude
Rises 17:21:24 0° 174° (S) 3,505 6.4 -6.5°
Reaches altitude 10° 17:23:52 10° 178° (S) 2,554 5.7 -6.9°
Maximum altitude 17:29:31 63° 259° (WSW) 969 3.9 -7.8°
Drops below altitude 10° 17:34:59 10° 340° (NNW) 2,461 5.9 -8.6°
Sets 17:37:20 0° 344° (NNW) 3,369 6.6 -9.0°
